User: anonymous   Login
Location: Unspecified
(0.0000°N, 0.0000°E)
Time: 09:25:52
(UTC+02:00)
Language:

Cosmos 1703 - Orbit

View from above orbital plane
View from above orbital plane
View from above satellite
View from above satellite

Ground track
Ground track

The orbit data is extracted from the following two-line orbital elements,

1 16262U 85108A   15125.85623641  .00003725  00000-0  23875-3 0  9993
2 16262 082.4884 288.1453 0010539 071.6285 288.6089 15.08210926602239
Epoch (UTC): 05 May 2015 20:32:58
Eccentricity: 0.0010539
inclination: 82.4884°
perigee height: 534 km
apogee height: 549 km
right ascension of ascending node: 288.1453°
argument of perigee: 71.6285°
revolutions per day: 15.08210926
mean anomaly at epoch: 288.6089°
orbit number at epoch: 60223

The dashed part of the orbit path shows where the satellite is in the earth's shadow,  

DLR